Regional Weather Roundup
Issued by NWS

Home | Current Version | Previous Version | Graphics & Text | Print | Product List | Glossary On
Versions: 1 2 3 4 5 6 7 8 9 10 11 12 13 14 15 16 17 18 19 20 21 22 23 24 25 26 27 28 29 30 31 32 33 34 35 36 37 38 39 40 41 42 43 44 45 46 47 48 49 50
771
ASUS43 KMKX 101221
RWRWI

WISCONSIN REGIONAL WEATHER ROUNDUP
NATIONAL WEATHER SERVICE MILWAUKEE/SULLIVAN WI
600 AM CST WED FEB 10 2016

NOTE: "FAIR" INDICATES FEW OR NO CLOUDS BELOW 12,000 FEET WITH NO
SIGNIFICANT WEATHER AND/OR OBSTRUCTIONS TO VISIBILITY.

WIZ001-002-006>008-014>016-023>028-101300-
NORTHWEST WISCONSIN

CITY           SKY/WX    TMP DP  RH WIND       PRES   REMARKS
SUPERIOR ARPT  CLOUDY    -6 -11  79 NW6       30.15R WCI -19
6HR MIN TEMP:  -7; 6HR MAX TEMP:   3;

ASHLAND        CLOUDY     4  -3  73 NW8       30.08R WCI  -9
6HR MIN TEMP:   4; 6HR MAX TEMP:   6; 6HR PCP: TRACE;

HAYWARD        CLOUDY     2  -4  76 VRB6      30.04R WCI  -9
6HR MIN TEMP:   2; 6HR MAX TEMP:   3; 6HR PCP: TRACE;

SIREN          CLOUDY   -13 -18  79 CALM      30.11R
6HR MIN TEMP: -15; 6HR MAX TEMP:   2;

CUMBERLAND     PTCLDY    -8 -13  77 NW6       30.06R WCI -21
RICE LAKE      CLOUDY    -3  -8  80 W5        30.08R WCI -14
6HR MIN TEMP:  -3; 6HR MAX TEMP:   3;

CHETEK         CLOUDY    -4  -8  83 NW3       30.07R
6HR MIN TEMP:  -4; 6HR MAX TEMP:   1;

LADYSMITH      CLOUDY     3  -3  77 NW6       30.04R WCI  -8
6HR MIN TEMP:   1; 6HR MAX TEMP:   6;

EAU CLAIRE     CLOUDY    -2  -9  72 NW7       30.07R WCI -15
6HR MIN TEMP:  -2; 6HR MAX TEMP:   4;

MENOMONIE      CLOUDY    -3 -10  70 W8        30.10R WCI -17
6HR MIN TEMP:  -3; 6HR MAX TEMP:   6;

NEW RICHMOND   PTCLDY    -5  -9  80 NW5       30.10F WCI -15
6HR MIN TEMP:  -5; 6HR MAX TEMP:   2;

OSCEOLA        PTCLDY     0  -6  77 NW3       30.14F
6HR MIN TEMP:  -1; 6HR MAX TEMP:   6;

$$

WIZ003>005-009-010-017-018-101300-
NORTH CENTRAL WISCONSIN

CITY           SKY/WX    TMP DP  RH WIND       PRES   REMARKS
MANITOWISH WTR CLOUDY     3  -3  77 N5        29.93R WCI  -7
6HR MIN TEMP:   2; 6HR MAX TEMP:   5;

ARBOR VITAE    FLURRIES   5  -1  79 NW5       29.92R WCI  -4
6HR MIN TEMP:   4; 6HR MAX TEMP:   9;

WOODRUFF       FLURRIES   5  -1  79 NW5       29.92R WCI  -4
6HR MIN TEMP:   4; 6HR MAX TEMP:   9;

RHINELANDER    CLOUDY     4  -3  73 VRB5      29.92R WCI  -5
6HR MIN TEMP:   4; 6HR MAX TEMP:   7; 6HR PCP: TRACE;

EAGLE RIVER    CLOUDY     3  -6  64 N10       29.91S WCI -12
LAND O LAKES   FLURRIES   3  -2  79 NW7       29.91S WCI  -9
6HR MIN TEMP:   3; 6HR MAX TEMP:   6;

PHILLIPS       PTCLDY     0  -5  79 NW6       29.96R WCI -12
6HR MIN TEMP:   0; 6HR MAX TEMP:   5;

TOMAHAWK       CLOUDY     3  -2  77 NW7       29.95R WCI  -9
6HR MIN TEMP:   3; 6HR MAX TEMP:   7;

MEDFORD        PTCLDY    -2  -6  85 W6        29.95R WCI -14
6HR MIN TEMP:  -2; 6HR MAX TEMP:   6;

MERRILL        CLOUDY     5  -2  73 NW6       29.96R WCI  -6
6HR MIN TEMP:   5; 6HR MAX TEMP:   8;

$$

WIZ029-030-035-036-043>047-101300-
CENTRAL WISCONSIN

CITY           SKY/WX    TMP DP  RH WIND       PRES   REMARKS
WAUSAU         CLOUDY     8  -1  66 N9        29.95R WCI  -5
6HR MIN TEMP:   8; 6HR MAX TEMP:  10; 6HR PCP: TRACE;

MOSINEE        CLOUDY     7   0  72 NW10G16   29.96F WCI  -8
MARSHFIELD     CLOUDY     4  -5  66 NW10      29.97R WCI -11
6HR MIN TEMP:   4; 6HR MAX TEMP:   9;

STEVENS POINT  CLOUDY     6  -3  66 NW7       29.98R WCI  -6
6HR MIN TEMP:   6; 6HR MAX TEMP:   9;

WAUPACA        CLOUDY    11  -3  54 NW10      29.98S WCI  -2
6HR MIN TEMP:  11; 6HR MAX TEMP:  14;

WAUTOMA        MOCLDY     7  -2  66 NW7       29.99S WCI  -4
6HR MIN TEMP:   8; 6HR MAX TEMP:  11;

WISC RAPIDS    CLOUDY     5  -3  69 NW7       30.00R WCI  -7
6HR MIN TEMP:   5; 6HR MAX TEMP:  10;

CAMP DOUGLAS   CLEAR     -4  -8  84 W9        30.03R WCI -20
$$

WIZ011>013-019>022-031-037>040-048>050-101300-
NORTHEAST WISCONSIN

CITY           SKY/WX    TMP DP  RH WIND       PRES   REMARKS
ANTIGO         CLOUDY     4  -5  67 N14       29.91S WCI -14
6HR MIN TEMP:   4; 6HR MAX TEMP:   7;

SHAWANO        CLOUDY    10  -3  55 N10       29.97F WCI  -3
6HR MIN TEMP:  10; 6HR MAX TEMP:  14;

OCONTO         CLEAR      6  -4  65 NW6       29.97S WCI  -5
6HR MIN TEMP:   5; 6HR MAX TEMP:  10;

STURGEON BAY   CLEAR      7  -8  51 NW14G21   29.95R WCI -10
6HR MIN TEMP:   7; 6HR MAX TEMP:  10;

GREEN BAY      CLEAR      5  -6  60 NW8       29.97R WCI  -8
6HR MIN TEMP:   5; 6HR MAX TEMP:  11;

MANITOWOC      CLEAR      6  -3  66 NW10      29.96R WCI  -9
6HR MIN TEMP:   6; 6HR MAX TEMP:  13;

APPLETON       MOCLDY     7  -2  66 NW15G22   29.93S WCI -11
CLINTONVILLE   CLOUDY    10  -4  52 N10       29.97S WCI  -3
OSHKOSH        CLOUDY     9  -3  58 N12       29.96S WCI  -6
6HR MIN TEMP:   9; 6HR MAX TEMP:  12;

$$

WIZ032>034-041-042-053>061-101300-
SOUTHWEST WISCONSIN

CITY           SKY/WX    TMP DP  RH WIND       PRES   REMARKS
LA CROSSE      PTCLDY     0  -9  65 CALM      30.10R
6HR MIN TEMP:   0; 6HR MAX TEMP:   6;

SPARTA         PTCLDY   -10 -14  81 CALM      30.07S
6HR MIN TEMP: -10; 6HR MAX TEMP:   5;

VIROQUA        PTCLDY    -2  -8  76 NW7       30.01R WCI -16
6HR MIN TEMP:  -3; 6HR MAX TEMP:   5;

BOSCOBEL       PTCLDY    -4  -9  79 CALM      30.10R
6HR MIN TEMP:  -5; 6HR MAX TEMP:   3;

PRAIRIE DU CHI CLOUDY     2  -6  69 CALM      30.11R
6HR MIN TEMP:   1; 6HR MAX TEMP:   8;

PLATTEVILLE    CLOUDY     1  -4  76 W6        30.03R WCI -10
6HR MIN TEMP:   1; 6HR MAX TEMP:   6;

$$

WIZ056-057-062-063-064-067-068-101300-
SOUTH CENTRAL WISCONSIN

CITY           SKY/WX    TMP DP  RH WIND       PRES   REMARKS
REEDSBURG      PTCLDY     1  -5  73 W8        30.02R WCI -13
6HR MIN TEMP:   1; 6HR MAX TEMP:   7;

BARABOO/DELLS  PTCLDY     2  -5  73 NW5       30.01R WCI  -7
6HR MIN TEMP:   2; 6HR MAX TEMP:  10;

LONE ROCK      CLOUDY     2  -7  66 W9        30.06R WCI -13
6HR MIN TEMP:   2; 6HR MAX TEMP:   8;

MINERAL POINT  CLOUDY     1  -4  78 NW7       30.00S WCI -11
MADISON        PTCLDY     6  -2  69 NW8       29.99F WCI  -7
6HR MIN TEMP:   6; 6HR MAX TEMP:  10; 6HR PCP: TRACE;

MIDDLETON      CLEAR      5  -2  72 W8        30.00S WCI  -8
6HR MIN TEMP:   5; 6HR MAX TEMP:  11;

WATERTOWN      CLOUDY    10   2  72 NW7       29.96F WCI  -2
6HR MIN TEMP:   9; 6HR MAX TEMP:  11;

MONROE         CLEAR      5  -2  72 NW10      29.98S WCI -10
JANESVILLE     PTCLDY    10   1  67 NW6       29.99S WCI   1
$$

WIZ051-052-058>065-066-070>072-101300-
SOUTHEAST WISCONSIN

CITY           SKY/WX    TMP DP  RH WIND       PRES   REMARKS
MILWAUKEE      PTCLDY     9  -1  64 NW9       29.97R WCI  -4
6HR MIN TEMP:   9; 6HR MAX TEMP:  14;

WAUKESHA       PTCLDY     5  -2  72 NW9       29.96R WCI  -9
MILWAUKEE/TIMM PTCLDY     9   0  66 W8        29.97S WCI  -4
RACINE         CLOUDY     9  -1  64 NW5       29.99R WCI   1
6HR MIN TEMP:   8; 6HR MAX TEMP:  14;

BURLINGTON     CLEAR      5  -3  71 NW8       29.97S WCI  -8
6HR MIN TEMP:   5; 6HR MAX TEMP:  10;

KENOSHA        PTCLDY     9  -1  64 NW8       29.97R WCI  -3
6HR MIN TEMP:   9; 6HR MAX TEMP:  14;

FOND DU LAC    CLOUDY     9  -2  61 N6        29.96F WCI  -1
6HR MIN TEMP:   9; 6HR MAX TEMP:  11; 6HR PCP: TRACE;

SHEBOYGAN      PTCLDY     7  -5  57 NW13      29.95R WCI  -9
6HR MIN TEMP:   7; 6HR MAX TEMP:  12;

WEST BEND      CLEAR      9   0  66 CALM      29.95S
JUNEAU         CLOUDY     9  -2  61 NW12      29.96F WCI  -6
6HR MIN TEMP:   8; 6HR MAX TEMP:  10;

$$

LSZ147-162-101300-
LAKE SUPERIOR

STATION/POSITION TIME  TEMP    WIND        PRES    WAVE
                       AIR SEA DIR/SP/G            HT/PER
                 (UTC) (F)     (DEG/KT/KT) (MB)    (FT/S)
DEVILS ISLAND    1200    4      10/  7/ 10 1021.2R
SAXON HARBOR     1100    9                 1016.9S
$$

LMZ867-665-643>646-101300-
LAKE MICHIGAN

STATION/POSITION TIME  TEMP    WIND        PRES    WAVE
                       AIR SEA DIR/SP/G            HT/PER
                 (UTC) (F)     (DEG/KT/KT) (MB)    (FT/S)
CHAMBERS ISLAND  1100    8     300/ 11/ 20 1013.5R
ALGOMA LAKESHORE 1111          320/ 12/ 15C1F1C2F2C3F3C4F4C5F5C6F6C7F7C8M1C9M2Ca!



USA.gov is the U.S. government's official web portal to all federal, state and local government web resources and services.